TimeCDT,TemperatureF,Dew PointF,Humidity,Sea Level PressureIn,VisibilityMPH,Wind Direction,Wind SpeedMPH,Gust SpeedMPH,PrecipitationIn,Events,Conditions,WindDirDegrees,DateUTC
12:13 AM,46.4,44.6,93,29.76,1.8,Calm,Calm,-,N/A,,Overcast,0,2012-10-24 05:13:00
12:33 AM,46.4,44.6,93,29.77,2.0,Calm,Calm,-,N/A,,Overcast,0,2012-10-24 05:33:00
12:53 AM,46.4,44.6,93,29.77,2.5,Calm,Calm,-,N/A,,Overcast,0,2012-10-24 05:53:00
1:13 AM,46.4,44.6,93,29.78,4.0,Calm,Calm,-,0.01,,Overcast,0,2012-10-24 06:13:00
1:33 AM,46.4,44.6,93,29.78,2.5,Calm,Calm,-,0.01,,Overcast,0,2012-10-24 06:33:00
1:53 AM,46.4,44.6,93,29.77,2.0,Calm,Calm,-,N/A,,Overcast,0,2012-10-24 06:53:00
2:13 AM,46.4,44.6,93,29.77,1.5,Calm,Calm,-,N/A,,Overcast,0,2012-10-24 07:13:00
2:33 AM,46.4,44.6,93,29.77,0.8,Calm,Calm,-,N/A,,Overcast,0,2012-10-24 07:33:00
2:53 AM,46.4,44.6,93,29.78,1.0,Calm,Calm,-,N/A,,Overcast,0,2012-10-24 07:53:00
3:13 AM,46.4,44.6,93,29.79,0.8,Calm,Calm,-,N/A,,Overcast,0,2012-10-24 08:13:00
3:33 AM,46.4,44.6,93,29.79,1.0,Calm,Calm,-,N/A,,Overcast,0,2012-10-24 08:33:00
3:53 AM,46.4,44.6,93,29.79,0.8,Calm,Calm,-,N/A,,Overcast,0,2012-10-24 08:53:00
4:13 AM,46.4,44.6,93,29.79,0.5,Calm,Calm,-,N/A,Fog,Fog,0,2012-10-24 09:13:00
4:33 AM,46.4,44.6,93,29.79,0.5,Calm,Calm,-,N/A,Fog,Fog,0,2012-10-24 09:33:00
4:53 AM,46.4,44.6,93,29.80,0.8,Calm,Calm,-,N/A,,Overcast,0,2012-10-24 09:53:00
5:13 AM,48.2,44.6,87,29.80,1.0,Calm,Calm,-,N/A,,Overcast,0,2012-10-24 10:13:00
5:33 AM,48.2,44.6,87,29.81,0.8,Calm,Calm,-,N/A,,Overcast,0,2012-10-24 10:33:00
5:53 AM,48.2,44.6,87,29.79,0.5,Calm,Calm,-,N/A,Fog,Fog,0,2012-10-24 10:53:00
6:13 AM,48.2,44.6,87,29.79,0.5,Calm,Calm,-,N/A,Fog,Fog,0,2012-10-24 11:13:00
6:33 AM,48.2,44.6,87,29.79,0.5,Calm,Calm,-,N/A,Fog,Fog,0,2012-10-24 11:33:00
6:53 AM,48.2,44.6,87,29.81,0.8,Calm,Calm,-,N/A,,Overcast,0,2012-10-24 11:53:00
7:13 AM,48.2,44.6,87,29.82,0.2,Calm,Calm,-,N/A,Fog,Fog,0,2012-10-24 12:13:00
7:33 AM,46.4,44.6,93,29.82,0.2,Calm,Calm,-,N/A,Fog,Fog,0,2012-10-24 12:33:00
7:53 AM,46.4,44.6,93,29.83,0.2,Calm,Calm,-,N/A,Fog,Fog,0,2012-10-24 12:53:00
8:13 AM,46.4,44.6,93,29.83,0.2,Calm,Calm,-,N/A,Fog,Fog,0,2012-10-24 13:13:00
8:53 AM,48.2,44.6,87,29.86,0.5,Calm,Calm,-,N/A,Fog,Fog,0,2012-10-24 13:53:00
9:13 AM,48.2,44.6,87,29.86,1.0,Calm,Calm,-,N/A,,Overcast,0,2012-10-24 14:13:00
9:33 AM,48.2,46.4,93,29.84,4.0,Calm,Calm,-,N/A,,Scattered Clouds,0,2012-10-24 14:33:00
9:53 AM,51.8,48.2,88,29.85,4.0,Calm,Calm,-,N/A,,Mostly Cloudy,0,2012-10-24 14:53:00
10:13 AM,51.8,50.0,94,29.84,5.0,Calm,Calm,-,N/A,,Scattered Clouds,0,2012-10-24 15:13:00
10:33 AM,53.6,50.0,88,29.85,10.0,Calm,Calm,-,N/A,,Mostly Cloudy,0,2012-10-24 15:33:00
11:13 AM,53.6,48.2,82,29.86,10.0,Calm,Calm,-,N/A,,Scattered Clouds,0,2012-10-24 16:13:00
11:33 AM,55.4,48.2,77,29.84,10.0,North,6.9,-,N/A,,Scattered Clouds,360,2012-10-24 16:33:00
11:53 AM,55.4,48.2,77,29.84,10.0,Calm,Calm,-,N/A,,Clear,0,2012-10-24 16:53:00
12:13 PM,57.2,48.2,72,29.84,10.0,NE,3.5,-,N/A,,Clear,40,2012-10-24 17:13:00
12:33 PM,57.2,48.2,72,29.81,10.0,NNE,4.6,-,N/A,,Clear,20,2012-10-24 17:33:00
12:53 PM,57.2,48.2,72,29.80,10.0,NNE,3.5,-,N/A,,Clear,20,2012-10-24 17:53:00
1:33 PM,55.4,46.4,72,29.81,10.0,SSE,8.1,-,N/A,,Clear,160,2012-10-24 18:33:00
1:53 PM,48.2,42.8,82,29.81,2.5,Calm,Calm,-,N/A,,Haze,0,2012-10-24 18:53:00
2:13 PM,48.2,44.6,87,29.81,7.0,Calm,Calm,-,N/A,,Scattered Clouds,0,2012-10-24 19:13:00
2:33 PM,50.0,44.6,82,29.81,10.0,Calm,Calm,-,N/A,,Scattered Clouds,0,2012-10-24 19:33:00
2:53 PM,51.8,46.4,82,29.80,10.0,Calm,Calm,-,N/A,,Scattered Clouds,0,2012-10-24 19:53:00
3:13 PM,51.8,48.2,88,29.80,10.0,Calm,Calm,-,N/A,,Scattered Clouds,0,2012-10-24 20:13:00
3:33 PM,53.6,48.2,82,29.79,10.0,Calm,Calm,-,N/A,,Light Drizzle,0,2012-10-24 20:33:00
4:13 PM,53.6,48.2,82,29.77,10.0,Calm,Calm,-,N/A,Rain,Light Rain,0,2012-10-24 21:13:00
4:33 PM,53.6,48.2,82,29.75,10.0,Calm,Calm,-,N/A,,Mostly Cloudy,0,2012-10-24 21:33:00
4:53 PM,51.8,48.2,88,29.76,2.5,Calm,Calm,-,0.06,Rain,Heavy Rain,0,2012-10-24 21:53:00
5:33 PM,51.8,48.2,88,29.78,4.0,Calm,Calm,-,0.32,Rain,Heavy Rain,0,2012-10-24 22:33:00
5:53 PM,51.8,48.2,88,29.77,10.0,Calm,Calm,-,0.01,Rain,Light Rain,0,2012-10-24 22:53:00
6:13 PM,51.8,46.4,82,29.76,10.0,North,4.6,-,0.01,,Light Drizzle,10,2012-10-24 23:13:00
6:34 PM,51.8,46.4,82,29.76,10.0,North,3.5,-,0.01,,Overcast,360,2012-10-24 23:34:00
6:53 PM,51.8,46.4,82,29.78,10.0,Calm,Calm,-,N/A,Rain-Thunderstorm,Light Thunderstorms and Rain,0,2012-10-24 23:53:00
7:13 PM,50.0,46.4,87,29.75,10.0,NNW,11.5,17.3,0.02,Rain,Light Rain,340,2012-10-25 00:13:00
7:33 PM,50.0,44.6,82,29.75,10.0,NNW,8.1,-,0.03,,Overcast,340,2012-10-25 00:33:00
8:13 PM,50.0,44.6,82,29.77,10.0,North,6.9,-,N/A,Rain,Light Rain,10,2012-10-25 01:13:00
8:33 PM,48.2,44.6,87,29.76,10.0,North,4.6,-,N/A,,Overcast,350,2012-10-25 01:33:00
8:53 PM,48.2,44.6,87,29.76,10.0,North,6.9,-,N/A,,Overcast,360,2012-10-25 01:53:00
9:13 PM,48.2,44.6,87,29.76,10.0,North,6.9,-,N/A,,Light Drizzle,360,2012-10-25 02:13:00
9:53 PM,48.2,42.8,82,29.76,10.0,North,4.6,-,N/A,,Light Drizzle,350,2012-10-25 02:53:00
10:13 PM,48.2,42.8,82,29.77,10.0,North,4.6,-,N/A,,Light Drizzle,350,2012-10-25 03:13:00
10:33 PM,46.4,42.8,87,29.77,10.0,North,5.8,-,0.01,Rain,Light Rain,350,2012-10-25 03:33:00
11:13 PM,46.4,42.8,87,29.77,7.0,NNW,4.6,-,0.03,,Light Drizzle,340,2012-10-25 04:13:00
11:33 PM,46.4,42.8,87,29.77,10.0,North,6.9,-,0.03,,Light Drizzle,350,2012-10-25 04:33:00
11:53 PM,46.4,42.8,87,29.77,10.0,NNW,5.8,-,N/A,,Scattered Clouds,340,2012-10-25 04:53:00